Location: *
(32.8140°S, 174.6161°E)
Time: 04:28:23
(UTC+00:00)

Cosmos 2237 - Pass Details

Date: 10 December 2019
Orbit: 847 x 855 km, 70.8° (Epoch: 17 January)

Event Time Altitude Azimuth Distance (km) Brightness Sun altitude
Exits shadow 15:33:43 20° 348° (NNW) 1,868 5.5 -16.7°
Maximum altitude 15:37:46 77° 71° (ENE) 877 4.3 -16.1°
Drops below altitude 10° 15:43:30 10° 156° (SSE) 2,495 7.7 -15.2°
Sets 15:45:58 0° 157° (SSE) 3,438 8.6 -14.8°
